星链-5135 (STARLINK-5135 )

导读

STARLINK-5135是美国SpaceX公司星链(Starlink)星座的一颗互联网通信卫星,于2022年10月5日由猎鹰9号火箭发射升空,属于星链Group 4批次卫星。该卫星运行在高度约550公里的近地轨道,重量约297千克,整体设计为盒体加展开天线构型,翼展达9米,配备相控阵天线与霍尔推进系统。作为星链巨型低轨星座组成部分,它承担为全球提供高速低延迟宽带互联网接入服务,尤其面向偏远地区、移动场景的网络覆盖,目前已在轨正常运行,和其他星链卫星共同构建全球无缝卫星通信网络。

基本信息
目录编号:
54005
目录名称:
STARLINK-5135
国际标识:
2022-125AT
轨道中心:
EARTH
卫星名称:
星链-5135
卫星全名:
星链-5135 (STARLINK-5135 )
卫星状态:
在轨 (已飞行1440 天)
发射日期:
2022-10-05 UTC
国别 :
美国 (US)
星等 :
--
该卫星已列入 空间交会检测服务 Space Conjunction Data Service (SCDS) ,当前飞行风险评估等级: 无高风险
轨道信息
数据来源 国际轨道数据
星历时间: 2026-09-14T06:12:20+0800
19小时前
查看轨道信息
半长轴: 6917.891km
偏心率: 0.0001295
轨道倾角: 53.159°
近地点辐角 91.126°
升交点赤经 88.197°
平近点角 268.988°
近地点: 538.858km
远地点: 540.65km
周期: 95.438分钟
每日圈数: 15.088367
详细信息
固有亮度:
5
最大亮度:
2.5
卫星平台:
Starlink v1.5
覆盖范围:
全球
运营商:
太空探索技术公司
运营商所在国:
美国
制造商(研发单位):
太空探索技术公司
制造商所在国:
美国
使用方式:
暂无
卫星简介
星链(Starlink)计划是由太空探索技术公司(SpaceX)提出的一个巨型低轨卫星互联网星座项目,计划在2019年至2024年间在太空搭建由约1.2万颗卫星组成的“星链”网络,其中1584颗将部署在地球上空550千米处的近地轨道,并从2020年开始工作。该卫星仍在工作。
2D轨道图
3D轨道图
轨道高度分析图
轨道倾角分析图
轨道综合分析图
查看轨道综合分析图
交会数据列表
事件ID 空间交会对象 最接近时刻(TCA) 交会距离 交会风险概率(CRP) 交会风险指数(CRI) 操作
CDM_260915-145402-904305-400522
CZ-4 DEB (29043)
2026-09-15T
14:54:18+0000
1.683 km
极远距离
4.589188E-6 低风险 0.48
与全量物体交会距离演化趋势 订阅飞行安全评估服务
与全量物体交会风险概率演化趋势 订阅飞行安全评估服务